Regional Weather Roundup
Issued by NWS Little Rock, AR

Home | Current Version | Previous Version | Graphics & Text | Print | Product List | Glossary On
Versions: 1 2 3 4 5 6 7 8 9 10 11 12 13 14 15 16 17 18 19 20 21 22 23 24 25 26 27 28 29 30 31
000
ASUS44 KLZK 270105
RWRLZK

WEATHER ROUNDUP FOR ARKANSAS
NATIONAL WEATHER SERVICE LITTLE ROCK AR
700 PM CST SUN FEB 26 2017

NOTE: "FAIR" INDICATES FEW OR NO CLOUDS BELOW 12,000 FEET WITH NO
SIGNIFICANT WEATHER AND/OR OBSTRUCTIONS TO VISIBILITY.

ARZ001-003-010-029-270200-
NORTHWEST ARKANSAS

CITY           SKY/WX    TMP DP  RH WIND       PRES   REMARKS
FAYETTEVILLE   CLOUDY    48  30  49 SE3       29.97R
FORT SMITH     CLOUDY    52  33  48 E7        29.97R
HARRISON       CLOUDY    47  27  45 E5        30.01R
BENTONVILLE    CLOUDY    46  28  49 E6        29.97S
ROGERS         CLOUDY    47  29  49 E7        29.98R
SILOAM SPGS    CLOUDY    48  27  43 SE7       29.96S
HIGHFILL       CLOUDY    48  30  49 NE3       29.96R
SPRINGDALE     CLOUDY    48  28  46 E6        29.98R
$$

ARZ004-005-016-270200-
NORTH CENTRAL ARKANSAS

CITY           SKY/WX    TMP DP  RH WIND       PRES   REMARKS
BATESVILLE     CLOUDY    48  30  49 SE3       30.05R
FLIPPIN        CLOUDY    50  25  37 SE3       30.01R
MTN HOME       CLOUDY    47  28  47 SE3       30.03R
$$

ARZ040-041-270200-
WEST CENTRAL ARKANSAS

CITY           SKY/WX    TMP DP  RH WIND       PRES   REMARKS
MENA           CLOUDY    55  36  47 CALM      29.98S
MOUNT IDA      CLOUDY    52  38  58 CALM      29.97R
$$

ARZ009-017-025-026-028-270200-
NORTHEAST ARKANSAS

CITY           SKY/WX    TMP DP  RH WIND       PRES   REMARKS
CORNING        CLOUDY    50  32  50 E9        30.06F
JONESBORO      CLOUDY    52  32  46 E3        30.06S
NEWPORT        LGT RAIN  50  37  61 E5        30.05S
WALNUT RIDGE   CLOUDY    50  32  50 SE5       30.07R
BLYTHEVILLE    CLOUDY    52  29  41 E7        30.08R
$$

ARZ022-023-033-042-044-270200-
CENTRAL ARKANSAS

CITY           SKY/WX    TMP DP  RH WIND       PRES   REMARKS
LITTLE ROCK    LGT RAIN  50  46  86 CALM      30.01R
N LITTLE ROCK    N/A     51  42  70 E6        30.04R
JACKSONVILLE   CLOUDY    50  46  87 N3        30.00R
SEARCY         LGT RAIN  48  40  73 NE6       30.04F
HOT SPRINGS    LGT RAIN  51  49  92 NE3       30.00R
RUSSELLVILLE   CLOUDY    50  34  54 E5        30.00R
CLINTON        CLOUDY    50  36  57 CALM      30.02F
$$

ARZ036-270200-
EAST ARKANSAS

CITY           SKY/WX    TMP DP  RH WIND       PRES   REMARKS
WEST MEMPHIS   CLOUDY    56  27  32 E5        30.04R
$$

ARZ050-053-066-070-073-270200-
SOUTHWEST ARKANSAS

CITY           SKY/WX    TMP DP  RH WIND       PRES   REMARKS
ARKADELPHIA    LGT RAIN  52  49  89 CALM      30.00S
CAMDEN         LGT RAIN  54  39  58 N7        30.00R
TEXARKANA      CLOUDY    53  48  83 E5        29.94S
EL DORADO      MOCLDY    62  34  35 SE8       29.96S
DE QUEEN       LGT RAIN  51  45  79 E7        29.94F
$$

ARZ056-057-069-270200-
SOUTHEAST ARKANSAS

CITY           SKY/WX    TMP DP  RH WIND       PRES   REMARKS
PINE BLUFF     LGT RAIN  53  45  74 N5        30.01R
STUTTGART      CLOUDY    54  37  54 NW5       30.04R
MONTICELLO     CLOUDY    61  33  35 S5        29.99F

$$






USA.gov is the U.S. government's official web portal to all federal, state and local government web resources and services.